KD0RXN-4 Weather Reports


Display with metric or nautical units.
time (UTC)temp
F
wind
direction
speed
MPH
gust
MPH
rain 1hr
in
rain 24hr
in
rain mn
in
humidity
%
barometer
mb
20240622191100 89 196 4.0 13.0 0.00 0.00 0.00 57 1013.0
20240622190523 89 225 5.0 13.0 0.00 0.00 0.00 56 1013.0
20240622190028 89 188 2.0 9.0 0.00 0.00 0.00 58 1013.1
20240622185534 89 222 0.0 9.0 0.00 0.00 0.00 57 1013.0
20240622185039 89 209 1.0 9.0 0.00 0.00 0.00 58 1013.0
20240622184524 88 236 2.0 14.0 0.00 0.00 0.00 59 1013.1
20240622184029 88 219 4.0 18.0 0.00 0.00 0.00 58 1013.2
20240622183536 88 202 4.0 18.0 0.00 0.00 0.00 57 1013.3
20240622183025 88 241 1.0 10.0 0.00 0.00 0.00 58 1013.2
20240622182530 88 196 2.0 9.0 0.00 0.00 0.00 60 1013.3
20240622182035 88 198 2.0 9.0 0.00 0.00 0.00 58 1013.4
20240622181540 88 240 1.0 10.0 0.00 0.00 0.00 61 1013.3
20240622181024 88 200 2.0 10.0 0.00 0.00 0.00 60 1013.4
20240622180527 88 195 0.0 11.0 0.00 0.00 0.00 60 1013.5
20240622180032 88 252 3.0 11.0 0.00 0.00 0.00 59 1013.5
20240622175557 87 207 1.0 11.0 0.00 0.00 0.00 60 1013.7
20240622175041 87 196 3.0 11.0 0.00 0.00 0.00 60 1013.8
20240622174526 88 236 1.0 9.0 0.00 0.00 0.00 60 1013.9
20240622174030 87 209 1.0 9.0 0.00 0.00 0.00 60 1014.1
20240622173535 87 259 1.0 16.0 0.00 0.00 0.00 60 1014.0
20240622173025 87 251 2.0 18.0 0.00 0.00 0.00 60 1014.0
20240622172531 87 213 2.0 18.0 0.00 0.00 0.00 61 1014.0
20240622172035 87 223 3.0 11.0 0.00 0.00 0.00 60 1014.1
20240622171521 87 212 1.0 10.0 0.00 0.00 0.00 61 1014.1
20240622171026 87 207 2.0 10.0 0.00 0.00 0.00 61 1014.2
20240622170531 87 223 1.0 12.0 0.00 0.00 0.00 61 1014.2
20240622170056 87 225 2.0 13.0 0.00 0.00 0.00 61 1014.3
20240622165521 86 216 3.0 13.0 0.00 0.00 0.00 62 1014.5
20240622165027 87 207 3.0 13.0 0.00 0.00 0.00 60 1014.5
20240622164545 86 264 3.0 13.0 0.00 0.00 0.00 61 1014.5
20240622164029 86 238 2.0 14.0 0.00 0.00 0.00 61 1014.5
20240622163534 86 200 2.0 14.0 0.00 0.00 0.00 61 1014.5
20240622163023 86 205 0.0 12.0 0.00 0.00 0.00 62 1014.5
20240622162547 86 240 3.0 12.0 0.00 0.00 0.00 62 1014.5
20240622162051 85 215 2.0 14.0 0.00 0.00 0.00 63 1014.5
20240622161535 85 197 5.0 14.0 0.00 0.00 0.00 63 1014.5
20240622161040 85 200 1.0 11.0 0.00 0.00 0.00 63 1014.6
20240622160545 84 202 3.0 11.0 0.00 0.00 0.00 64 1014.5
20240622160048 84 234 4.0 11.0 0.00 0.00 0.00 64 1014.5
20240622155533 84 233 0.0 9.0 0.00 0.00 0.00 65 1014.5
20240622155058 84 219 1.0 11.0 0.00 0.00 0.00 65 1014.5
20240622154521 83 189 3.0 14.0 0.00 0.00 0.00 64 1014.6
20240622154028 84 171 1.0 13.0 0.00 0.00 0.00 64 1014.6
20240622153532 84 238 0.0 10.0 0.00 0.00 0.00 65 1014.7
20240622153037 83 207 3.0 10.0 0.00 0.00 0.00 65 1014.7
20240622152521 83 208 1.0 11.0 0.00 0.00 0.00 65 1014.8
20240622152047 83 205 2.0 12.0 0.00 0.00 0.00 65 1014.9
20240622151531 83 230 5.0 12.0 0.00 0.00 0.00 64 1015.1
20240622151040 83 185 1.0 5.0 0.00 0.00 0.00 65 1015.1
20240622150525 82 214 0.0 8.0 0.00 0.00 0.00 66 1015.2
20240622150031 82 187 2.0 8.0 0.00 0.00 0.00 65 1015.2
20240622145536 82 192 1.0 10.0 0.00 0.00 0.00 66 1015.2
20240622145021 82 215 3.0 10.0 0.00 0.00 0.00 65 1015.2
20240622144525 82 197 2.0 9.0 0.00 0.00 0.00 65 1015.3
20240622144031 82 246 2.0 9.0 0.00 0.00 0.00 65 1015.3
20240622143537 82 199 1.0 8.0 0.00 0.00 0.00 65 1015.4
20240622143022 81 200 1.0 6.0 0.00 0.00 0.00 65 1015.3
20240622142527 81 182 0.0 5.0 0.00 0.00 0.00 66 1015.4
20240622142052 80 211 0.0 6.0 0.00 0.00 0.00 67 1015.4
20240622141556 80 240 1.0 6.0 0.00 0.00 0.00 67 1015.2
20240622141024 80 191 0.0 9.0 0.00 0.00 0.00 70 1015.3
20240622140529 79 237 3.0 9.0 0.00 0.00 0.00 69 1015.5
20240622140034 79 204 0.0 3.0 0.00 0.00 0.00 70 1015.5
20240622135539 79 204 0.0 9.0 0.00 0.00 0.00 70 1015.6
20240622135025 79 200 0.0 9.0 0.00 0.00 0.00 71 1015.7
20240622134549 78 206 0.0 3.0 0.00 0.00 0.00 72 1015.8
20240622134033 78 208 0.0 9.0 0.00 0.00 0.00 72 1015.7
20240622133539 78 196 1.0 9.0 0.00 0.00 0.00 73 1015.8
20240622133025 78 229 1.0 10.0 0.00 0.00 0.00 73 1015.6
20240622132549 77 244 0.0 7.0 0.00 0.00 0.00 73 1015.6
20240622132053 77 213 1.0 8.0 0.00 0.00 0.00 73 1015.8
20240622131537 77 241 2.0 8.0 0.00 0.00 0.00 73 1015.9
20240622131026 77 198 0.0 4.0 0.00 0.00 0.00 74 1015.9
20240622130531 77 194 0.0 4.0 0.00 0.00 0.00 75 1016.0
20240622130037 76 211 0.0 3.0 0.00 0.00 0.00 75 1016.1
20240622125521 76 188 0.0 4.0 0.00 0.00 0.00 75 1016.1
20240622125047 76 195 0.0 4.0 0.00 0.00 0.00 76 1016.2
20240622124531 76 215 0.0 2.0 0.00 0.00 0.00 76 1016.3
20240622124036 75 197 0.0 3.0 0.00 0.00 0.00 77 1016.2
20240622123521 75 175 0.0 6.0 0.00 0.00 0.00 77 1016.2
20240622123027 75 183 1.0 6.0 0.00 0.00 0.00 78 1016.1
20240622122532 74 202 0.0 1.0 0.00 0.00 0.00 78 1016.2
20240622122037 74 210 0.0 2.0 0.00 0.00 0.00 78 1016.1
20240622121527 74 207 0.0 2.0 0.00 0.00 0.00 78 1016.2
20240622121033 74 195 0.0 0.0 0.00 0.00 0.00 79 1016.1
20240622120538 74 228 0.0 0.0 0.00 0.00 0.00 79 1016.1
20240622120023 74 158 0.0 1.0 0.00 0.00 0.00 79 1016.2
20240622115529 73 205 0.0 4.0 0.00 0.00 0.00 79 1016.3
20240622115033 73 227 0.0 4.0 0.00 0.00 0.00 79 1016.3
20240622114538 73 191 0.0 3.0 0.00 0.00 0.00 79 1016.2
20240622114024 73 233 0.0 2.0 0.00 0.00 0.00 78 1016.1
20240622113529 73 182 0.0 2.0 0.00 0.00 0.00 78 1016.1
20240622113034 73 156 0.0 2.0 0.00 0.00 0.00 78 1016.0
20240622112524 74 195 0.0 2.0 0.00 0.00 0.00 78 1016.0
20240622112031 74 163 0.0 2.0 0.00 0.00 0.00 78 1016.1
20240622111536 74 202 0.0 2.0 0.00 0.00 0.00 78 1016.0
20240622111100 74 198 0.0 1.0 0.00 0.00 0.00 78 1016.0
20240622110526 74 211 0.0 1.0 0.00 0.00 0.00 78 1016.0
20240622110051 74 198 0.0 4.0 0.00 0.00 0.00 78 1016.1
20240622105536 73 209 0.0 4.0 0.00 0.00 0.00 78 1016.1
20240622105101 73 151 0.0 1.0 0.00 0.00 0.00 78 1016.1
20240622104526 73 187 0.0 0.0 0.00 0.00 0.00 78 1016.2
20240622104031 73 171 0.0 0.0 0.00 0.00 0.00 78 1016.2
20240622103536 73 188 0.0 0.0 0.00 0.00 0.00 78 1016.2
20240622103022 73 169 0.0 0.0 0.00 0.00 0.00 78 1016.2
20240622102526 73 198 0.0 0.0 0.00 0.00 0.00 78 1016.3
20240622102036 73 184 0.0 0.0 0.00 0.00 0.00 78 1016.3
20240622101540 73 185 0.0 0.0 0.00 0.00 0.00 78 1016.3
20240622101025 73 159 0.0 0.0 0.00 0.00 0.00 78 1016.4
20240622100529 73 204 0.0 0.0 0.00 0.00 0.00 78 1016.3
20240622100034 73 165 0.0 1.0 0.00 0.00 0.00 78 1016.2
20240622095538 73 173 0.0 1.0 0.00 0.00 0.00 77 1016.2
20240622095043 73 165 0.0 0.0 0.00 0.00 0.00 77 1016.2
20240622094528 74 136 0.0 0.0 0.00 0.00 0.00 77 1016.3
20240622094033 74 184 0.0 0.0 0.00 0.00 0.00 77 1016.3
20240622093539 74 173 0.0 0.0 0.00 0.00 0.00 77 1016.3
20240622093026 74 180 0.0 2.0 0.00 0.00 0.00 76 1016.4
20240622092531 74 208 0.0 0.0 0.00 0.00 0.00 76 1016.4
20240622092036 74 150 0.0 1.0 0.00 0.00 0.00 76 1016.5
20240622091526 74 102 0.0 1.0 0.00 0.00 0.00 76 1016.5
20240622091031 74 195 0.0 0.0 0.00 0.00 0.00 76 1016.5
20240622090557 74 214 0.0 0.0 0.00 0.00 0.00 76 1016.5
20240622090020 74 196 0.0 1.0 0.00 0.00 0.00 76 1016.6
20240622085546 74 210 0.0 1.0 0.00 0.00 0.00 76 1016.7
20240622085030 75 136 0.0 0.0 0.00 0.00 0.00 76 1016.6
20240622084535 75 134 0.0 0.0 0.00 0.00 0.00 76 1016.5
20240622084040 75 120 0.0 0.0 0.00 0.00 0.00 76 1016.7
20240622083546 75 157 0.0 1.0 0.00 0.00 0.00 76 1016.6
20240622083030 75 190 0.0 1.0 0.00 0.00 0.00 75 1016.7
20240622082536 75 168 0.0 0.0 0.00 0.00 0.00 75 1016.8
20240622082021 75 188 0.0 0.0 0.00 0.00 0.00 75 1016.7
20240622081546 75 121 0.0 0.0 0.00 0.00 0.00 76 1016.8
20240622081030 75 148 0.0 0.0 0.00 0.00 0.00 76 1016.7
20240622080540 75 143 0.0 0.0 0.00 0.00 0.00 75 1016.8
20240622080026 75 198 0.0 0.0 0.00 0.00 0.00 76 1016.9
20240622075532 75 160 0.0 0.0 0.00 0.00 0.00 76 1017.0
20240622075036 76 147 0.0 0.0 0.00 0.00 0.00 75 1017.1
20240622074542 76 172 0.0 0.0 0.00 0.00 0.00 75 1017.1
20240622074025 76 182 0.0 0.0 0.00 0.00 0.00 75 1017.1
20240622073529 76 157 0.0 0.0 0.00 0.00 0.00 75 1017.1
20240622073035 76 182 0.0 0.0 0.00 0.00 0.00 75 1017.1
20240622072600 76 180 0.0 0.0 0.00 0.00 0.00 75 1017.1
20240622072023 76 194 0.0 1.0 0.00 0.00 0.00 75 1017.1
20240622071528 76 173 0.0 0.0 0.00 0.00 0.00 74 1017.2
20240622071034 77 196 0.0 0.0 0.00 0.00 0.00 74 1017.1
20240622070523 77 227 0.0 0.0 0.00 0.00 0.00 74 1017.1
20240622070027 77 206 0.0 0.0 0.00 0.00 0.00 74 1017.1
20240622065532 77 154 0.0 0.0 0.00 0.00 0.00 74 1017.1
20240622065039 77 169 0.0 0.0 0.00 0.00 0.00 74 1017.1
20240622064523 77 218 0.0 0.0 0.00 0.00 0.00 74 1017.1
20240622064028 77 185 0.0 1.0 0.00 0.00 0.00 73 1017.2
20240622063534 77 166 0.0 1.0 0.00 0.00 0.00 73 1017.2
20240622063039 77 163 0.0 0.0 0.00 0.00 0.00 73 1017.3
20240622062524 78 157 0.0 0.0 0.00 0.00 0.00 73 1017.3
20240622062030 78 188 0.0 0.0 0.00 0.00 0.00 72 1017.3
20240622061535 78 216 0.0 1.0 0.00 0.00 0.00 72 1017.3
20240622061025 78 171 0.0 1.0 0.00 0.00 0.00 73 1017.3
20240622060530 78 161 0.0 1.0 0.00 0.00 0.00 73 1017.3
20240622060035 78 188 0.0 1.0 0.00 0.00 0.00 73 1017.3
20240622055600 78 200 0.0 1.0 0.00 0.00 0.00 73 1017.3
20240622055025 78 179 0.0 0.0 0.00 0.00 0.00 73 1017.3
20240622054550 78 161 0.0 0.0 0.00 0.00 0.00 73 1017.3
20240622054054 78 175 0.0 0.0 0.00 0.00 0.00 73 1017.2
20240622053559 78 185 0.0 0.0 0.00 0.00 0.00 73 1017.2
20240622053044 78 175 0.0 0.0 0.00 0.00 0.00 72 1017.1
20240622052548 78 210 0.0 1.0 0.00 0.00 0.00 72 1017.1
20240622052032 78 137 0.0 1.0 0.00 0.00 0.00 72 1017.0
20240622051539 78 195 0.0 1.0 0.00 0.00 0.00 72 1017.1
20240622051024 79 186 0.0 0.0 0.00 0.00 0.00 72 1017.1
20240622050529 79 150 0.0 0.0 0.00 0.00 0.00 72 1017.1
20240622050054 79 146 0.0 0.0 0.00 0.00 0.00 72 1017.0
20240622045522 79 165 0.0 0.0 0.00 0.00 0.00 72 1017.0
20240622045027 79 187 0.0 0.0 0.00 0.00 0.00 73 1017.0
20240622044534 79 169 0.0 0.0 0.00 0.00 0.00 73 1017.1
20240622044039 79 191 0.0 0.0 0.00 0.00 0.00 73 1017.0
20240622043524 79 126 0.0 0.0 0.00 0.00 0.00 73 1017.0
20240622043029 79 163 0.0 0.0 0.00 0.00 0.00 72 1017.0
20240622042535 79 189 0.0 0.0 0.00 0.00 0.00 72 1017.1
20240622042020 79 146 0.0 0.0 0.00 0.00 0.00 72 1017.0
20240622041525 80 179 0.0 0.0 0.00 0.00 0.00 72 1017.1
20240622041032 80 165 0.0 0.0 0.00 0.00 0.00 71 1017.1
20240622040557 80 171 0.0 0.0 0.00 0.00 0.00 71 1017.0
20240622040024 80 159 0.0 0.0 0.00 0.00 0.00 71 1017.1
20240622035529 80 179 0.0 0.0 0.00 0.00 0.00 70 1017.0
20240622035036 80 152 0.0 0.0 0.00 0.00 0.00 70 1017.1
20240622034542 80 165 0.0 0.0 0.00 0.00 0.00 70 1017.0
20240622034027 80 169 0.0 0.0 0.00 0.00 0.00 70 1017.0
20240622033532 80 177 0.0 0.0 0.00 0.00 0.00 69 1017.0
20240622033056 81 163 0.0 0.0 0.00 0.00 0.00 69 1017.0
20240622032540 81 171 0.0 0.0 0.00 0.00 0.00 68 1017.1
20240622032027 81 168 0.0 0.0 0.00 0.00 0.00 68 1017.1
20240622031530 81 156 0.0 0.0 0.00 0.00 0.00 68 1017.0
20240622031036 81 148 0.0 0.0 0.00 0.00 0.00 68 1016.9
20240622030520 81 131 0.0 0.0 0.00 0.00 0.00 67 1016.9
20240622030046 81 150 0.0 0.0 0.00 0.00 0.00 67 1017.0
20240622025549 82 147 0.0 0.0 0.00 0.00 0.00 66 1016.9
20240622025033 82 153 0.0 0.0 0.00 0.00 0.00 65 1016.9
20240622024542 82 134 0.0 0.0 0.00 0.00 0.00 64 1016.7
20240622024026 82 158 0.0 0.0 0.00 0.00 0.00 63 1016.7
20240622023532 83 140 0.0 0.0 0.00 0.00 0.00 63 1016.7
20240622023059 83 138 0.0 0.0 0.00 0.00 0.00 62 1016.6
20240622022523 83 141 0.0 0.0 0.00 0.00 0.00 62 1016.6
20240622022029 83 142 0.0 0.0 0.00 0.00 0.00 61 1016.7
20240622021554 83 146 0.0 0.0 0.00 0.00 0.00 61 1016.7
20240622021038 83 143 0.0 0.0 0.00 0.00 0.00 61 1016.6
20240622020525 83 146 0.0 0.0 0.00 0.00 0.00 61 1016.6
20240622020050 84 159 0.0 0.0 0.00 0.00 0.00 61 1016.6
20240622015553 84 163 0.0 0.0 0.00 0.00 0.00 61 1016.7
20240622015057 84 164 0.0 0.0 0.00 0.00 0.00 60 1016.7
20240622014541 84 171 0.0 0.0 0.00 0.00 0.00 59 1016.7
20240622014025 84 173 0.0 0.0 0.00 0.00 0.00 59 1016.7
20240622013551 85 189 0.0 0.0 0.00 0.00 0.00 58 1016.7
20240622013036 85 175 0.0 0.0 0.00 0.00 0.00 58 1016.7
20240622012524 85 188 0.0 0.0 0.00 0.00 0.00 58 1016.7
20240622012029 85 188 0.0 0.0 0.00 0.00 0.00 58 1016.7
20240622011535 85 184 0.0 0.0 0.00 0.00 0.00 57 1016.8
20240622011039 85 188 0.0 0.0 0.00 0.00 0.00 57 1016.8
20240622010525 86 182 0.0 0.0 0.00 0.00 0.00 56 1016.9
20240622010031 86 188 0.0 0.0 0.00 0.00 0.00 56 1017.0
20240622005537 86 179 0.0 0.0 0.00 0.00 0.00 56 1017.0
20240622005022 86 154 0.0 0.0 0.00 0.00 0.00 55 1017.0
20240622004547 86 201 0.0 0.0 0.00 0.00 0.00 55 1017.1
20240622004031 87 191 0.0 0.0 0.00 0.00 0.00 55 1017.0
20240622003556 86 166 0.0 0.0 0.00 0.00 0.00 55 1017.1
20240622003039 87 186 0.0 0.0 0.00 0.00 0.00 54 1017.1
20240622002530 87 148 0.0 0.0 0.00 0.00 0.00 54 1017.2
20240622002034 87 205 0.0 0.0 0.00 0.00 0.00 54 1017.2
20240622001539 87 156 0.0 1.0 0.00 0.00 0.00 54 1017.3
20240622001023 87 137 0.0 1.0 0.00 0.00 0.00 54 1017.3
20240622000529 87 195 0.0 0.0 0.00 0.00 0.00 53 1017.4
20240622000034 88 159 0.0 1.0 0.00 0.00 0.00 53 1017.4
20240621235559 88 165 0.0 1.0 0.00 0.00 0.00 52 1017.4
20240621235043 88 182 0.0 2.0 0.00 0.00 0.00 53 1017.5
20240621234527 88 192 0.0 2.0 0.00 0.00 0.00 52 1017.5
20240621234032 88 180 0.0 1.0 0.00 0.00 0.00 52 1017.5
20240621233538 88 193 0.0 2.0 0.00 0.00 0.00 51 1017.6
20240621233022 88 180 0.0 2.0 0.00 0.00 0.00 51 1017.6
20240621232548 88 197 0.0 1.0 0.00 0.00 0.00 51 1017.7
20240621232036 88 188 0.0 5.0 0.00 0.00 0.00 51 1017.7
20240621231541 88 150 0.0 5.0 0.00 0.00 0.00 51 1017.7
20240621231025 89 158 0.0 1.0 0.00 0.00 0.00 51 1017.7
20240621230531 89 188 0.0 0.0 0.00 0.00 0.00 51 1017.8
20240621230034 88 130 0.0 4.0 0.00 0.00 0.00 51 1017.9
20240621225539 88 173 0.0 4.0 0.00 0.00 0.00 51 1018.0
20240621225043 88 194 1.0 4.0 0.00 0.00 0.00 51 1018.0
20240621224528 88 195 0.0 2.0 0.00 0.00 0.00 51 1018.0
20240621224034 88 161 0.0 2.0 0.00 0.00 0.00 51 1018.1
20240621223559 88 196 0.0 1.0 0.00 0.00 0.00 51 1018.2
20240621223023 88 155 0.0 5.0 0.00 0.00 0.00 52 1018.2
20240621222527 88 192 1.0 5.0 0.00 0.00 0.00 51 1018.3
20240621222032 89 229 0.0 8.0 0.00 0.00 0.00 51 1018.4
20240621221522 89 171 1.0 8.0 0.00 0.00 0.00 52 1018.4
20240621221027 88 221 0.0 4.0 0.00 0.00 0.00 51 1018.4
20240621220552 89 192 0.0 4.0 0.00 0.00 0.00 52 1018.4
20240621220037 89 173 0.0 2.0 0.00 0.00 0.00 51 1018.5
20240621215542 88 188 0.0 2.0 0.00 0.00 0.00 50 1018.6
20240621215026 88 219 0.0 2.0 0.00 0.00 0.00 51 1018.6
20240621214532 89 192 0.0 2.0 0.00 0.00 0.00 51 1018.7
20240621214037 89 113 0.0 3.0 0.00 0.00 0.00 51 1018.7
20240621213524 89 190 0.0 3.0 0.00 0.00 0.00 50 1018.7
20240621213029 89 146 0.0 2.0 0.00 0.00 0.00 51 1018.7
20240621212534 89 196 0.0 1.0 0.00 0.00 0.00 51 1018.7
20240621212039 88 261 0.0 2.0 0.00 0.00 0.00 52 1018.8
20240621211528 89 173 0.0 2.0 0.00 0.00 0.00 52 1018.9
20240621211033 88 148 0.0 2.0 0.00 0.00 0.00 54 1018.9
20240621210559 88 121 0.0 3.0 0.00 0.00 0.00 54 1019.0
20240621210024 88 193 0.0 3.0 0.00 0.00 0.00 54 1019.1
20240621205549 89 193 0.0 5.0 0.00 0.00 0.00 53 1019.0
20240621205034 89 176 0.0 5.0 0.00 0.00 0.00 52 1019.1
20240621204538 89 207 0.0 4.0 0.00 0.00 0.00 52 1019.1
20240621204044 88 198 0.0 5.0 0.00 0.00 0.00 51 1019.1
20240621203528 88 221 0.0 3.0 0.00 0.00 0.00 52 1019.2
20240621203033 88 111 0.0 4.0 0.00 0.00 0.00 52 1019.2
20240621202538 88 178 0.0 5.0 0.00 0.00 0.00 51 1019.3
20240621202043 88 185 0.0 8.0 0.00 0.00 0.00 52 1019.3
20240621201527 89 194 0.0 1.0 0.00 0.00 0.00 51 1019.3
20240621201032 89 196 0.0 1.0 0.00 0.00 0.00 51 1019.3
20240621200521 88 175 0.0 3.0 0.00 0.00 0.00 54 1019.4
20240621200027 88 118 0.0 3.0 0.00 0.00 0.00 52 1019.4
20240621195532 88 178 0.0 9.0 0.00 0.00 0.00 53 1019.5
20240621195037 88 207 0.0 9.0 0.00 0.00 0.00 52 1019.6
20240621194522 88 173 0.0 3.0 0.00 0.00 0.00 54 1019.6
20240621194027 88 136 0.0 2.0 0.00 0.00 0.00 51 1019.7
20240621193552 88 164 0.0 3.0 0.00 0.00 0.00 54 1019.8
20240621193038 88 176 0.0 3.0 0.00 0.00 0.00 53 1019.8
20240621192522 88 135 0.0 6.0 0.00 0.00 0.00 54 1019.9
20240621192048 87 208 0.0 6.0 0.00 0.00 0.00 55 1019.9
20240621191532 88 199 0.0 2.0 0.00 0.00 0.00 56 1020.0